Year,Month,Day,Hour,Minute,Value (Times are PST for temperature in C)
2009,03,22,08,54,0.50
2009,03,22,08,55,0.50
2009,03,22,08,56,0.50
2009,03,22,08,57,0.60
2009,03,22,08,58,0.60
2009,03,22,08,59,0.70
2009,03,22,09,00,0.70
2009,03,22,09,01,0.80
2009,03,22,09,02,0.80
2009,03,22,09,03,0.80
2009,03,22,09,04,0.90
2009,03,22,09,05,0.90
2009,03,22,09,06,1.00
2009,03,22,09,07,1.00
2009,03,22,09,08,1.00
2009,03,22,09,09,1.00
2009,03,22,09,10,1.10
2009,03,22,09,11,1.10
2009,03,22,09,12,1.10
2009,03,22,09,13,1.20
2009,03,22,09,14,1.20
2009,03,22,09,15,1.20
2009,03,22,09,16,1.30
2009,03,22,09,17,1.30
2009,03,22,09,18,1.30
2009,03,22,09,19,1.30
2009,03,22,09,20,1.30
2009,03,22,09,21,1.30
2009,03,22,09,22,1.30
2009,03,22,09,23,1.30
2009,03,22,09,24,1.30
2009,03,22,09,25,1.40
2009,03,22,09,26,1.40
2009,03,22,09,27,1.50
2009,03,22,09,28,1.50
2009,03,22,09,29,1.60
2009,03,22,09,30,1.60
2009,03,22,09,31,1.70
2009,03,22,09,32,1.70
2009,03,22,09,33,1.70
2009,03,22,09,34,1.70
2009,03,22,09,35,1.70
2009,03,22,09,36,1.80
2009,03,22,09,37,1.80
2009,03,22,09,38,1.90
2009,03,22,09,39,1.90
2009,03,22,09,40,2.00
2009,03,22,09,41,2.10
2009,03,22,09,42,2.20
2009,03,22,09,43,2.30
2009,03,22,09,44,2.40
2009,03,22,09,45,2.50
2009,03,22,09,46,2.60
2009,03,22,09,47,2.70
2009,03,22,09,48,2.80
2009,03,22,09,49,2.80
2009,03,22,09,50,3.00
2009,03,22,09,51,3.10
2009,03,22,09,52,3.20
2009,03,22,09,53,3.30
2009,03,22,09,54,3.40
2009,03,22,09,55,3.40
2009,03,22,09,56,3.50
2009,03,22,09,57,3.50
2009,03,22,09,58,3.60
2009,03,22,09,59,3.60
2009,03,22,10,00,3.60
2009,03,22,10,01,3.60
2009,03,22,10,02,3.60
2009,03,22,10,03,3.60
2009,03,22,10,04,3.70
2009,03,22,10,05,3.70
2009,03,22,10,06,3.70
2009,03,22,10,07,3.70
2009,03,22,10,08,3.70
2009,03,22,10,09,3.80
2009,03,22,10,10,3.80
2009,03,22,10,11,3.90
2009,03,22,10,12,4.00
2009,03,22,10,13,4.10
2009,03,22,10,14,4.20
2009,03,22,10,15,4.30
2009,03,22,10,16,4.40
2009,03,22,10,17,4.40
2009,03,22,10,18,4.40
2009,03,22,10,19,4.50
2009,03,22,10,20,4.50
2009,03,22,10,21,4.50
2009,03,22,10,22,4.50
2009,03,22,10,23,4.50
2009,03,22,10,24,4.50
2009,03,22,10,25,4.50
2009,03,22,10,26,4.50
2009,03,22,10,27,4.50
2009,03,22,10,28,4.50
2009,03,22,10,29,4.50
2009,03,22,10,30,4.60
2009,03,22,10,31,4.60
2009,03,22,10,32,4.60
2009,03,22,10,33,4.70
2009,03,22,10,34,4.70
2009,03,22,10,35,4.70
2009,03,22,10,36,4.70
2009,03,22,10,37,4.80
2009,03,22,10,38,4.80
2009,03,22,10,39,4.90
2009,03,22,10,40,4.90
2009,03,22,10,41,5.00
2009,03,22,10,42,5.00
2009,03,22,10,43,5.10
2009,03,22,10,44,5.10
2009,03,22,10,45,5.00
2009,03,22,10,46,5.00
2009,03,22,10,47,5.00
2009,03,22,10,48,5.00
2009,03,22,10,49,5.00
2009,03,22,10,50,5.00
2009,03,22,10,51,5.00
2009,03,22,10,52,5.10
2009,03,22,10,53,5.10
2009,03,22,10,54,5.10
2009,03,22,10,55,5.20
2009,03,22,10,56,5.20
2009,03,22,10,57,5.20
2009,03,22,10,58,5.30
2009,03,22,10,59,5.30
2009,03,22,11,00,5.40
2009,03,22,11,01,5.50
2009,03,22,11,02,5.50
2009,03,22,11,03,5.60
2009,03,22,11,04,5.60
2009,03,22,11,05,5.70
2009,03,22,11,06,5.80
2009,03,22,11,07,5.80
2009,03,22,11,08,5.90
2009,03,22,11,09,5.90
2009,03,22,11,10,5.90
2009,03,22,11,11,6.00
2009,03,22,11,12,6.00
2009,03,22,11,13,6.10
2009,03,22,11,14,6.10
2009,03,22,11,15,6.20
2009,03,22,11,16,6.20
2009,03,22,11,17,6.30
2009,03,22,11,18,6.30
2009,03,22,11,19,6.40
2009,03,22,11,20,6.40
2009,03,22,11,21,6.50
2009,03,22,11,22,6.50
2009,03,22,11,23,6.50
2009,03,22,11,24,6.60
2009,03,22,11,25,6.50
2009,03,22,11,26,6.50
2009,03,22,11,27,6.50
2009,03,22,11,28,6.50
2009,03,22,11,29,6.40
2009,03,22,11,30,6.40
2009,03,22,11,31,6.40
2009,03,22,11,32,6.40
2009,03,22,11,33,6.40
2009,03,22,11,34,6.50
2009,03,22,11,35,6.50
2009,03,22,11,36,6.50
2009,03,22,11,37,6.60
2009,03,22,11,38,6.60
2009,03,22,11,39,6.60
2009,03,22,11,40,6.60
2009,03,22,11,41,6.60
2009,03,22,11,42,6.60
2009,03,22,11,43,6.60
2009,03,22,11,44,6.60
2009,03,22,11,45,6.60
2009,03,22,11,46,6.60
2009,03,22,11,47,6.60
2009,03,22,11,48,6.60
2009,03,22,11,49,6.70
2009,03,22,11,50,6.70
2009,03,22,11,51,6.70
2009,03,22,11,52,6.70
2009,03,22,11,53,6.70
2009,03,22,11,54,6.80
2009,03,22,11,55,6.80
2009,03,22,11,56,6.80
2009,03,22,11,57,6.80
2009,03,22,11,58,6.90
2009,03,22,11,59,6.90
2009,03,22,12,00,7.00
2009,03,22,12,01,7.10
2009,03,22,12,02,7.20
2009,03,22,12,03,7.20
2009,03,22,12,04,7.20
2009,03,22,12,05,7.20
2009,03,22,12,06,7.30
2009,03,22,12,07,7.30
2009,03,22,12,08,7.40
2009,03,22,12,09,7.40
2009,03,22,12,10,7.30
2009,03,22,12,11,7.30
2009,03,22,12,12,7.30
2009,03,22,12,13,7.30
2009,03,22,12,14,7.30
2009,03,22,12,15,7.40
2009,03,22,12,16,7.40
2009,03,22,12,17,7.50
2009,03,22,12,18,7.60
2009,03,22,12,19,7.60
2009,03,22,12,20,7.70
2009,03,22,12,21,7.70
2009,03,22,12,22,7.70
2009,03,22,12,23,7.70
2009,03,22,12,24,7.80
2009,03,22,12,25,7.80
2009,03,22,12,26,7.70
2009,03,22,12,27,7.70
2009,03,22,12,28,7.70
2009,03,22,12,29,7.70
2009,03,22,12,30,7.70
2009,03,22,12,31,7.70
2009,03,22,12,32,7.70
2009,03,22,12,33,7.70
2009,03,22,12,34,7.70
2009,03,22,12,35,7.70
2009,03,22,12,36,7.70
2009,03,22,12,37,7.70
2009,03,22,12,38,7.70
2009,03,22,12,39,7.70
2009,03,22,12,40,7.70
2009,03,22,12,41,7.80
2009,03,22,12,42,7.80
2009,03,22,12,43,7.80
2009,03,22,12,44,7.80
2009,03,22,12,45,7.90
2009,03,22,12,46,7.90
2009,03,22,12,47,7.90
2009,03,22,12,48,7.90
2009,03,22,12,49,7.90
2009,03,22,12,50,7.90
2009,03,22,12,51,8.00
2009,03,22,12,52,7.90
2009,03,22,12,53,7.90
2009,03,22,12,54,7.90
2009,03,22,12,55,7.90
2009,03,22,12,56,8.00
2009,03,22,12,57,8.00
2009,03,22,12,58,8.00
2009,03,22,12,59,8.10
2009,03,22,13,00,8.10
2009,03,22,13,01,8.00
2009,03,22,13,02,8.00
2009,03,22,13,03,8.00
2009,03,22,13,04,8.00
2009,03,22,13,05,8.00
2009,03,22,13,06,8.10
2009,03,22,13,07,8.10
2009,03,22,13,08,8.10
2009,03,22,13,09,8.10
2009,03,22,13,10,8.10
2009,03,22,13,11,8.10
2009,03,22,13,12,8.10
2009,03,22,13,13,8.10
2009,03,22,13,14,8.10
2009,03,22,13,15,8.10
2009,03,22,13,16,8.10
2009,03,22,13,17,8.10
2009,03,22,13,18,8.20
2009,03,22,13,19,8.20
2009,03,22,13,20,8.20
2009,03,22,13,21,8.20
2009,03,22,13,22,8.20
2009,03,22,13,23,8.20
2009,03,22,13,24,8.20
2009,03,22,13,25,8.20
2009,03,22,13,26,8.20
2009,03,22,13,27,8.20
2009,03,22,13,28,8.20
2009,03,22,13,29,8.20
2009,03,22,13,30,8.20
2009,03,22,13,31,8.20
2009,03,22,13,32,8.20
2009,03,22,13,33,8.30
2009,03,22,13,34,8.30
2009,03,22,13,35,8.30
2009,03,22,13,36,8.40
2009,03,22,13,37,8.40
2009,03,22,13,38,8.50
2009,03,22,13,39,8.50
2009,03,22,13,40,8.50
2009,03,22,13,41,8.40
2009,03,22,13,42,8.50
2009,03,22,13,43,8.50
2009,03,22,13,44,8.50
2009,03,22,13,45,8.50
2009,03,22,13,46,8.50
2009,03,22,13,47,8.60
2009,03,22,13,48,8.50
2009,03,22,13,49,8.50
2009,03,22,13,50,8.50
2009,03,22,13,51,8.40
2009,03,22,13,52,8.40
2009,03,22,13,53,8.40
2009,03,22,13,54,8.40
2009,03,22,13,55,8.40
2009,03,22,13,56,8.40
2009,03,22,13,57,8.40
2009,03,22,13,58,8.40
2009,03,22,13,59,8.40
2009,03,22,14,00,8.40
2009,03,22,14,01,8.40
2009,03,22,14,02,8.40
2009,03,22,14,03,8.40
2009,03,22,14,04,8.40
2009,03,22,14,05,8.40
2009,03,22,14,06,8.40
2009,03,22,14,07,8.40
2009,03,22,14,08,8.40
2009,03,22,14,09,8.40
2009,03,22,14,10,8.40
2009,03,22,14,11,8.40
2009,03,22,14,12,8.40
2009,03,22,16,18,6.20
2009,03,22,16,19,6.30
2009,03,22,16,20,6.30
2009,03,22,16,21,6.30
2009,03,22,16,22,6.40
2009,03,22,16,23,6.40
2009,03,22,16,24,6.40
2009,03,22,16,25,6.40
2009,03,22,16,26,6.50
2009,03,22,16,27,6.50
2009,03,22,16,28,6.60
2009,03,22,16,29,6.60
2009,03,22,16,30,6.60
2009,03,22,16,31,6.60
2009,03,22,16,32,6.60
2009,03,22,16,33,6.60
2009,03,22,16,34,6.60
2009,03,22,16,35,6.60
2009,03,22,16,36,6.60
2009,03,22,16,37,6.60
2009,03,22,16,38,6.60
2009,03,22,16,39,6.60
2009,03,22,16,40,6.60
2009,03,22,16,41,6.60
2009,03,22,16,42,6.60
2009,03,22,16,43,6.70
2009,03,22,16,44,6.70
2009,03,22,16,45,6.70
2009,03,22,16,46,6.60
2009,03,22,16,47,6.60
2009,03,22,16,48,6.60
2009,03,22,16,49,6.60
2009,03,22,16,50,6.60
2009,03,22,16,51,6.60
2009,03,22,16,52,6.60
2009,03,22,16,53,6.60
2009,03,22,16,54,6.50
2009,03,22,16,55,6.50
2009,03,22,16,56,6.50
2009,03,22,16,57,6.40
2009,03,22,16,58,6.40
2009,03,22,16,59,6.30
2009,03,22,17,00,6.30
2009,03,22,17,01,6.30
2009,03,22,17,02,6.20
2009,03,22,17,03,6.20
2009,03,22,17,04,6.10
2009,03,22,17,05,6.10
2009,03,22,17,06,6.00
2009,03,22,17,07,6.10
2009,03,22,17,08,6.00
2009,03,22,17,09,6.00
2009,03,22,17,10,5.90
2009,03,22,17,11,5.90
2009,03,22,17,12,6.00
2009,03,22,17,13,6.00
2009,03,22,17,14,6.00
2009,03,22,17,15,6.00
2009,03,22,17,16,6.10
2009,03,22,17,17,6.10
2009,03,22,17,18,6.10
2009,03,22,17,19,6.10
2009,03,22,17,20,6.10
2009,03,22,17,21,6.00
2009,03,22,17,22,6.00
2009,03,22,17,23,6.00
2009,03,22,17,24,6.00
2009,03,22,17,25,6.00
2009,03,22,17,26,6.00
2009,03,22,17,27,6.00
2009,03,22,17,28,6.00
2009,03,22,17,29,6.00
2009,03,22,17,30,6.00
2009,03,22,17,31,6.00
2009,03,22,17,32,6.00
2009,03,22,17,33,6.00
